Погода в Леоне

Испания     42°36′25″N   5°34′32″W
темп.,
°C
ветер,
м/с
пор.,
м/с
влажн.,
%
обл.,
%
осадки,
мм/ч
давл.,
гПа
погр.,
м
14 апреля, ср
ср1423:00+6св118739 0.0 102315
02:00+4ссз11916 0.0 102310
05:00+4ссв2291100 0.0 102113
08:00+4ссв339071 0.0 102119
11:00+11всв23727 0.0 1019538
14:00+15вюв345156 0.0 10171582
17:00+17вюв3443100 0.0 10151976
20:00+13всв5856100 0.0 1015217
15 апреля, чт
чт1523:00+8в596496 0.0 1018173
02:00+6всв486975 0.0 1019158
05:00+4св33715 0.0 101943
08:00+3св34535 0.0 102051
11:00+10св35374 0.0 1018607
14:00+15в34261 0.0 10161507
17:00+16ююв343020 0.0 10141892
20:00+13в354495 0.0 1015266
16 апреля, пт
пт1623:00+6всв46645 0.0 1020126
02:00+3св33770 0.0 102151
05:00+1св22680 0.0 102116
08:000ссв12604 0.0 102210
11:00+6всв2238100 0.0 1022698
14:00+12зюз14301 0.0 10181774
17:00+14ссв33251 0.0 10162128
20:00+11св46410 0.0 1018347
17 апреля, сб
сб1723:00+3вюв46590 0.0 1023167
02:00+1ссв12735 0.0 102425
05:00−1зсз22780 0.0 102434
08:00−2з23824 0.0 102547
11:00+5зсз01460 0.0 1024592
14:00+10ююв22370 0.0 10221278
17:00+12ююз22355 0.0 10191333
20:00+12ю2242100 0.0 1019106
18 апреля, вс
вс1823:00+5вюв4665100 0.0 102587
02:00+3вюв1168100 0.0 102516
05:00+2зюз1167100 0.0 102510
08:00+1з116960 0.0 102510
11:00+7ююз1153100 0.0 1024415
14:00+13юз21395 0.0 1021925
17:00+16ююз213071 0.0 10181243
20:00+15ю3340100 0.0 101841